#timestamp,LO_Frequency,Hit,StdDev 
1593270015.6,286047021.5,P
1593270035.4,286047026.9,P
1593270055.3,286047035.5,Y
1593270075.1,286047016.3,P
1593270095.9,286047020.4,P
1593270115.7,286047020.9,P
1593270135.5,286047022.2,Y
1593270155.4,286047000.1,P
1593270175.2,286047008.0,N
1593270195.0,286047010.9,N
1593270195.9,286047010.9,N
1593270215.8,286047017.8,N
1593270235.6,286047021.9,Y
1593270255.5,286047007.8,P
1593270275.3,286047013.9,P
1593270295.1,286047016.3,P
1593270315.9,286047020.8,Y
1593270335.7,286047010.5,P
1593270355.5,286047013.1,P
1593270375.4,286047016.5,P
1593270395.2,286047019.9,Y
1593270415.1,286047006.5,P
1593270416.0,286047006.5,N
1593270435.8,286047005.5,N
1593270455.6,286047006.0,N
1593270475.5,286047004.0,N
1593270495.3,286047000.5,N
1593270515.1,286046998.4,N
1593270535.9,286046996.9,N
1593270555.7,286047002.7,N
1593270575.6,286047001.3,N
1593270595.4,286047012.2,N
1593270615.2,286047016.3,Y
1593270635.1,286047005.0,P
1593270636.0,286047005.0,P
1593270655.8,286047000.4,N
1593270675.6,286046992.2,Y
1593270695.5,286046982.4,P
1593270715.3,286046976.5,N
1593270735.2,286046970.6,N
1593270755.9,286046962.2,Y
1593270775.7,286046974.6,P
1593270795.6,286046971.3,P
1593270815.4,286046967.3,P
1593270835.3,286046967.4,Y
1593270855.1,286046990.1,P
1593270856.0,286046990.1,N
1593270875.8,286046991.2,N
1593270895.7,286046991.6,N
1593270915.5,286046989.2,N
1593270935.3,286046988.1,N
1593270955.2,286046984.5,N
1593270975.0,286046980.9,Y
1593270975.9,286046980.9,P
1593270995.8,286046994.8,N
1593271015.6,286046987.3,N
1593271035.4,286046983.9,Y
1593271055.3,286046997.8,P
1593271075.1,286046997.4,N
1593271095.8,286046997.2,N
1593271115.7,286046996.7,N
1593271135.5,286046995.0,N
1593271155.4,286046997.2,N
1593271175.2,286046997.9,N
1593271195.0,286046996.2,N
1593271195.9,286046996.2,N
1593271215.8,286046995.7,N
1593271235.6,286046993.3,N
1593271255.4,286046999.2,N
1593271275.3,286046997.1,N
1593271295.1,286046995.6,N
1593271315.9,286046991.9,Y
1593271335.7,286046995.4,P
1593271355.5,286046994.2,P
1593271375.4,286046992.9,P
1593271395.2,286046991.0,Y
1593271415.1,286046996.2,P
1593271416.0,286046996.2,P
1593271435.8,286046993.3,P
1593271455.6,286046991.7,Y
1593271475.5,286046995.9,P
1593271495.3,286046993.6,P
1593271515.1,286046993.4,P
1593271535.9,286046996.3,Y
1593271555.7,286046999.1,P
1593271575.6,286046995.3,N
1593271595.4,286046994.0,P
1593271615.2,286046994.6,N
1593271635.1,286046992.7,Y
1593271636.0,286046992.7,P
1593271655.8,286046995.0,P
1593271675.7,286046994.9,P
1593271695.5,286046994.9,Y
1593271715.3,286047002.4,P
1593271735.2,286047002.7,N
1593271755.0,286047005.5,N
1593271755.9,286047005.5,N
1593271775.7,286047005.1,N
1593271795.6,286047006.0,N
1593271815.4,286047005.8,N
1593271835.3,286047007.1,N
1593271855.1,286047007.9,N
1593271856.0,286047007.9,N
1593271875.8,286047008.6,N
1593271895.7,286047008.5,N
1593271915.5,286047010.4,N
1593271935.3,286047010.3,N
1593271955.2,286047008.7,N
1593271975.0,286047008.5,N
1593271975.9,286047008.5,N
1593271995.8,286047007.0,N
1593272015.6,286047008.5,N
1593272035.4,286047008.6,N
1593272055.3,286047009.2,N
1593272075.1,286047009.7,N
1593272095.8,286047010.1,Y
1593272115.7,286047005.4,P
1593272135.5,286047007.6,P
1593272155.4,286047003.5,P
1593272175.2,286047007.4,Y
1593272195.0,286047000.2,P
1593272195.9,286047000.2,N
1593272215.8,286047001.7,N
1593272235.6,286046998.1,N
1593272255.4,286046998.1,N
1593272275.3,286046998.9,N
1593272295.1,286046997.4,N
1593272315.9,286046997.3,N
1593272335.7,286046996.8,N
1593272355.5,286046996.7,N
1593272375.4,286046996.5,N
1593272395.2,286046995.1,N
1593272415.0,286046995.9,N
1593272415.9,286046995.9,N
1593272435.8,286046995.9,N
1593272455.6,286046993.8,N
1593272475.5,286046995.0,N
1593272495.3,286046995.5,N
1593272515.1,286046995.1,N
1593272535.9,286046993.5,N
1593272555.7,286046996.2,N
1593272575.5,286046995.8,N
1593272595.4,286046997.4,N
1593272615.2,286046997.8,N
1593272635.1,286046998.1,N
1593272636.0,286046998.1,N
1593272655.8,286046999.4,N
1593272675.6,286047002.2,N
1593272695.5,286047002.5,N
1593272715.3,286046999.9,N
1593272735.1,286046999.0,N
1593272755.9,286046998.3,N
1593272775.7,286046995.0,N
1593272795.6,286047001.1,N
1593272815.4,286047000.1,N
1593272835.2,286047004.0,N
1593272855.1,286047005.9,N
1593272856.0,286047005.9,N
1593272875.8,286047004.0,N
1593272895.6,286047004.1,N
1593272915.5,286047003.1,N
1593272935.3,286047003.2,N
1593272955.2,286047003.3,N
1593272975.9,286047004.0,N
1593272995.7,286047003.4,N
1593273015.6,286047003.1,N
1593273035.4,286047004.3,N
1593273055.2,286047004.4,N
1593273075.1,286047005.9,N
1593273076.0,286047005.9,N
1593273095.8,286047006.7,N
1593273115.7,286047004.8,N
1593273135.5,286047003.3,N
1593273155.3,286047003.7,N
1593273175.2,286047005.6,N
1593273195.0,286047008.9,Y
1593273195.9,286047008.9,P
1593273215.8,286047009.0,N
1593273235.6,286047008.3,N
1593273255.4,286047007.8,Y
1593273275.3,286047002.0,P
1593273295.1,286047005.5,N
1593273315.9,286047003.4,N
1593273335.7,286047005.2,N
1593273355.5,286047006.4,Y
1593273375.4,286046998.5,P
1593273395.2,286046996.5,N
1593273415.1,286046998.0,N
1593273416.0,286046998.0,N
1593273435.8,286046999.1,N
1593273455.6,286046999.3,N
1593273475.5,286046996.5,N
1593273495.3,286046999.4,N
1593273515.1,286046998.2,N
1593273535.9,286047000.6,N
1593273555.7,286047000.3,N
1593273575.6,286047002.4,N
1593273595.4,286047004.3,N
